Weather History for KPGD - February, 2013

Change the Weather History Date:

Sunday, February 24, 2013

  Actual Average (KFMY) Record (KFMY)
Temperature  
Mean Temperature 75 °F 68 °F  
Max Temperature 84 °F 78 °F 88 °F (2001)
Min Temperature 66 °F 57 °F 37 °F (1989)
Degree Days  
Heating Degree Days 0 2  
Month to date heating degree days 54  
Since 1 July heating degree days 255  
Cooling Degree Days 10 4  
Month to date cooling degree days 86  
Year to date cooling degree days 169  
Growing Degree Days 25 (Base 50)    
Moisture  
Dew Point 68 °F    
Average Humidity 90    
Maximum Humidity 100    
Minimum Humidity 55    
Precipitation  
Precipitation 0.00 in 0.08 in 1.33 in (1992)
Month to date precipitation 1.80  
Year to date precipitation 3.74  
Sea Level Pressure  
Sea Level Pressure 29.97 in    
Wind  
Wind Speed 5 mph (SSW)    
Max Wind Speed 17 mph    
Max Gust Speed -    
Visibility 4 miles    
Events Fog    
T = Trace of Precipitation, MM = Missing Value Source: NWS Daily Summary

Daily Weather History Graph

Daily Weather History Graph

Search for Another Location

Airport or City:

Trip Planner

Search our weather history database for the weather conditions in past years. The results will help you decide how hot, cold, wet, or windy it might be!

Date:

Astronomy

Feb. 24, 2013 Rise Set
Actual Time 6:56 AM EST 6:26 PM EST
Civil Twilight 6:32 AM EST 6:49 PM EST
Nautical Twilight 6:05 AM EST 7:16 PM EST
Astronomical Twilight 5:39 AM EST 7:43 PM EST
Moon 5:35 PM EST (2/24) 5:50 AM EST (2/24)
Length of Visible Light 12h 16m
Length of Day
11h 29m
Waxing Gibbous, 99% of the Moon is Illuminated
Feb 24
Waxing Gibbous
Feb 25
Full
Mar 4
Last Quarter
Mar 11
New
Mar 19
First Quarter

Hourly Weather History & Observations

Time (EST) Temp. Heat Index Dew Point Humidity Pressure Visibility Wind Dir Wind Speed Gust Speed Precip Events Conditions
12:42 AM 71.6 °F - 69.8 °F 94% 29.98 in 2.5 mi SW 4.6 mph - N/A   Overcast
12:53 AM 71.1 °F - 70.0 °F 96% 29.98 in 1.5 mi SSW 4.6 mph - N/A   Overcast
1:44 AM 71.6 °F - 69.8 °F 94% 29.97 in 0.5 mi SSW 4.6 mph - N/A Fog Fog
1:53 AM 71.1 °F - 70.0 °F 96% 29.97 in 0.2 mi SSW 4.6 mph - N/A Fog Fog
2:20 AM 69.8 °F - 69.8 °F 100% 29.96 in 1.8 mi SSW 5.8 mph - N/A   Overcast
2:27 AM 69.8 °F - 69.8 °F 100% 29.96 in 2.5 mi SSW 5.8 mph - N/A   Overcast
2:38 AM 69.8 °F - 69.8 °F 100% 29.96 in 3.0 mi SSW 4.6 mph - N/A   Overcast
2:53 AM 69.1 °F - 69.1 °F 100% 29.96 in 2.5 mi South 4.6 mph - N/A   Overcast
3:03 AM 69.8 °F - 69.8 °F 100% 29.95 in 1.2 mi South 4.6 mph - N/A   Overcast
3:22 AM 69.8 °F - 68.0 °F 94% 29.95 in 0.5 mi South 3.5 mph - N/A Fog Fog
3:53 AM 69.1 °F - 68.0 °F 96% 29.94 in 0.5 mi South 6.9 mph - N/A Fog Fog
4:19 AM 68.0 °F - 66.2 °F 94% 29.94 in 1.5 mi South 6.9 mph - N/A   Overcast
4:53 AM 68.0 °F - 66.9 °F 96% 29.95 in 2.5 mi South 4.6 mph - N/A   Overcast
5:02 AM 68.0 °F - 66.2 °F 94% 29.95 in 4.0 mi South 4.6 mph - N/A   Overcast
5:30 AM 68.0 °F - 66.2 °F 94% 29.96 in 5.0 mi South 3.5 mph - N/A   Overcast
5:53 AM 68.0 °F - 66.9 °F 96% 29.96 in 5.0 mi SSW 5.8 mph - N/A   Overcast
6:40 AM 69.8 °F - 68.0 °F 94% 29.97 in 4.0 mi SSW 3.5 mph - N/A   Overcast
6:53 AM 69.1 °F - 68.0 °F 96% 29.98 in 4.0 mi South 4.6 mph - N/A   Overcast
7:09 AM 69.8 °F - 68.0 °F 94% 29.98 in 2.5 mi South 4.6 mph - N/A   Overcast
7:38 AM 69.8 °F - 69.8 °F 100% 29.99 in 1.8 mi South 3.5 mph - N/A   Overcast
7:53 AM 70.0 °F - 69.1 °F 97% 30.01 in 1.8 mi Calm Calm - N/A   Overcast
8:28 AM 71.6 °F - 69.8 °F 94% 30.01 in 2.0 mi Calm Calm - N/A   Overcast
8:53 AM 72.0 °F - 70.0 °F 93% 30.02 in 3.0 mi SSW 3.5 mph - N/A   Overcast
9:26 AM 75.2 °F - 69.8 °F 83% 30.02 in 5.0 mi SW 3.5 mph - N/A   Haze
9:53 AM 78.1 °F - 69.1 °F 74% 30.02 in 8.0 mi WSW 3.5 mph - N/A   Partly Cloudy
10:53 AM 82.9 °F 85.4 °F 66.9 °F 58% 30.01 in 10.0 mi SW 10.4 mph - N/A   Clear
11:53 AM 84.0 °F 86.3 °F 66.0 °F 55% 29.99 in 10.0 mi WSW 11.5 mph - N/A   Clear
12:53 PM 84.9 °F 87.6 °F 66.9 °F 55% 29.97 in 10.0 mi SW 13.8 mph - N/A   Partly Cloudy
1:53 PM 82.9 °F 86.5 °F 69.1 °F 63% 29.96 in 10.0 mi West 15.0 mph - N/A   Clear
2:53 PM 82.0 °F 85.9 °F 70.0 °F 67% 29.95 in 10.0 mi WSW 17.3 mph - N/A   Clear
3:53 PM 81.0 °F 84.9 °F 71.1 °F 72% 29.95 in 8.0 mi WSW 12.7 mph - N/A   Clear
4:53 PM 78.1 °F - 71.1 °F 79% 29.95 in 6.0 mi SW 9.2 mph - N/A   Haze
5:53 PM 75.9 °F - 70.0 °F 82% 29.94 in 7.0 mi SW 6.9 mph - N/A   Clear
6:53 PM 73.0 °F - 70.0 °F 90% 29.95 in 7.0 mi West 3.5 mph - N/A   Clear
7:53 PM 72.0 °F - 69.1 °F 91% 29.97 in 6.0 mi West 3.5 mph - N/A   Clear
8:53 PM 71.1 °F - 69.1 °F 93% 29.99 in 4.0 mi WNW 3.5 mph - N/A   Clear
9:20 PM 69.8 °F - 69.8 °F 100% 29.97 in 2.5 mi Calm Calm - N/A   Clear
9:29 PM 69.8 °F - 68.0 °F 94% 29.97 in 0.8 mi Calm Calm - N/A   Mist
9:43 PM 69.8 °F - 68.0 °F 94% 29.98 in 1.2 mi Calm Calm - N/A   Partly Cloudy
9:53 PM 70.0 °F - 69.1 °F 97% 29.98 in 2.0 mi Calm Calm - N/A   Partly Cloudy
10:15 PM 68.0 °F - 66.2 °F 94% 29.97 in 1.0 mi Calm Calm - N/A   Mist
10:23 PM 68.0 °F - 66.2 °F 94% 29.97 in 0.5 mi Calm Calm - N/A Fog Fog
10:50 PM 66.2 °F - 66.2 °F 100% 29.96 in 2.0 mi Calm Calm - N/A   Mostly Cloudy
10:53 PM 66.9 °F - 64.9 °F 93% 29.96 in 0.8 mi Calm Calm - N/A   Mist
11:01 PM 66.2 °F - 64.4 °F 94% 29.95 in 0.2 mi East 4.6 mph - N/A Fog Fog
11:09 PM 66.2 °F - 64.4 °F 94% 29.95 in 0.2 mi East 3.5 mph - N/A Fog Fog
11:53 PM 66.9 °F - 66.9 °F 100% 29.96 in 0.2 mi Calm Calm - N/A Fog Fog